HUBBLE
1 20580U 90037B 10089.98482348 .00000607 00000-0 33695-4 0 5425
2 20580 028.4701 030.3706 0003544 093.0753 267.0268 15.00934738892999
ISS
1 25544U 98067A 10090.87180706 .00021517 00000-0 15098-3 0 8819
2 25544 051.6441 267.5162 0006494 125.0176 029.9676 15.74110583651294
CO-58
1 28895U 05043F 10089.70952284 .00000037 00000-0 17096-4 0 5486
2 28895 098.0261 336.7402 0018122 167.7609 192.4023 14.59865790235538
FALCON
1 30776U 07006E 10090.19522625 .00001006 00000-0 75248-4 0 7960
2 30776 035.4328 157.7646 0001341 272.5616 087.4947 15.03557760168311
MAST
1 31126U 07012K 10089.74863598 -.00000076 00000-0 -69621-5 0 8297
2 31126 097.9455 135.7831 0095854 109.7464 251.4107 14.53567513156668
CAPE1
1 31130U 07012P 10090.13761218 .00000210 00000-0 58601-4 0 8500
2 31130 097.9485 133.7183 0103883 115.9856 245.2143 14.52153784156335
COMPASS
1 32787U 08021E 10090.31321154 .00000421 00000-0 59879-4 0 6332
2 32787 097.9003 156.1190 0015859 175.0342 185.1020 14.81807145103965
AAUSAT2
1 32788U 08021F 10089.91856669 .00000030 00000-0 10552-4 0 6275
2 32788 097.9063 155.8429 0015956 175.7947 184.3383 14.81942520103914
DO-64
1 32789U 08021G 10090.33905781 .00000944 00000-0 12535-3 0 6438
2 32789 097.9075 156.6456 0016204 173.9957 186.1468 14.82041782103976
CO-66
1 32791U 08021J 10089.71626988 .00000206 00000-0 32942-4 0 6234
2 32791 097.9024 155.5535 0015743 175.6047 184.5286 14.81603640103836
RS-30
1 32953U 08025A 10090.45695183 .00000010 00000-0 00000 0 0 5613
2 32953 082.4967 078.0121 0017343 273.6152 086.2954 12.43004618 84086
TACSAT-3
1 35001U 09028A 10090.10718089 .00006680 00000-0 16279-3 0 2500
2 35001 040.4576 322.8731 0020329 142.3977 217.8263 15.40954274 48587
PHARMSAT
1 35002U 09028B 10090.02455349 .00006177 00000-0 14774-3 0 2373
2 35002 040.4712 321.6711 0023349 145.3305 214.9038 15.41548974 48583
HAWKSAT1
1 35003U 09028C 10090.84848311 .00011983 00000-0 26060-3 0 2528
2 35003 040.4639 313.5267 0021735 162.2466 197.9067 15.43826248 48757
CP6
1 35004U 09028D 10089.84602553 .00014385 00000-0 30656-3 0 2449
2 35004 040.4633 319.1301 0020544 156.5817 203.5878 15.44339136 48598
AEROCUB3
1 35005U 09028E 10090.86157126 .00029500 00000-0 57967-3 0 2613
2 35005 040.4773 313.0800 0018262 168.4213 191.7004 15.46435179 48750
DRAGNSAT
1 35690U 09038B 10076.22711312 .05715194 12509-4 31481-3 0 3162
2 35690 051.6170 315.4586 0004999 310.9891 057.3269 16.42150010 36561
POLLUX
1 35693U 09038E 10087.99866888 .23496735 12787-4 17715-3 0 3529
2 35693 051.6099 254.5746 0006270 294.4866 097.5899 16.52338462 38395
CASTOR
1 35694U 09038F 10090.86272591 .00051595 12168-4 16479-3 0 2492
2 35694 051.6379 250.8722 0003444 258.7590 101.3029 15.91622703 38707
METEOR-M
1 35865U 09049A 10090.65505578 .00000176 00000-0 10000-3 0 1631
2 35865 098.7679 144.9777 0001614 222.6701 137.4307 14.21829321 27700
RS-38
1 35869U 09049E 10090.77551285 .00000176 00000-0 10000-3 0 1667
2 35869 098.7661 145.1231 0003938 223.2140 136.8684 14.21978195 27725
